Showing default

RELAY 1 (A-15), 503

Orbit data source: Space-Track

RELAY 1 (A-15), 503 is a payload satellite owned by GSFC (US) that was launched on Thu, 13 Dec 1962 UTC via a THOR DELTA B launch vehicle from the Air Force Eastern Test Range (AFETR). Payloads include a variety of satellites, spacecraft, and rockets equipped with specific instruments for various scientific and technological missions. These include communications satellites like Starlink; space stations such as the ISS; scientific satellites like the Hubble; Earth observation satellites from companies like Planet Labs, Umbra, and HawkEye 360; GPS; miniature CubeSats for education and research; and military/defense satellites.

Loading next visibility...
RELAY 1 (A-15) details
Identifier
503, 1962-068A
Orbit
Active
Last TLE update18 hours ago
Origin
Flag of USGSFC (US)
ManufacturerRCA/East Windsor
MissionCivil Communications
Bus & MotorRELAY, Unknown motor
Mass78 kg wet, 78 kg dry
Launch date (UTC)
1962-12-13 (62 years ago)
Launch vehicle
THOR DELTA B
Launch site
Air Force Eastern Test Range (AFETR)
Object type
Payload
Rocket body
Debris
Shape & HBROct Cyl, 0.81 m
Radar Cross Section0.652 m², Medium (>0.1 m² and < 1m²)

Expand to show TLE details & history

TLE from 18 hours ago
0 RELAY 1 (A-15)
1 00503U 62068A   25024.24268003 -.00000018  00000-0  00000-0 0  9998
2 00503  47.5298 356.2458 2845540 321.5710  31.1251  7.78160963765867
Epoch: 2025-01-24T05:49Z
Definitive object data (Epoch: 2025-01-24T05:49:27.554Z)
Latitude11.78608°
Longitude156.03111°
Altitude2,105.51 km
Speed7.546 km/s
True Right ascension00h 28m 49s
True Declination11° 43' 42"
Sunlit
Object was in daylight at TLE epoch
Visualization TLE readout
Latitude-18.55935°
Longitude-18.02531°
Altitude4,980.906 km
Speed5.758 km/s
Apparent Right ascension12h 47m 53s
Apparent Declination-26° 06' 08"
Sunlit
Object is in daylight
Visualization observer readout
Local Sidereal Time00:37:34
Azimuth350.364° N
Elevation-76.019°
Doppler factor1
Orbital elements
Apogee altitude7,440.844 km
Perigee altitude1,318.491 km
Semi-major axis10,757.804 km
Eccentricity0.284554
Inclination47.5298°
RAAN356.2458°
Arg. of periapsis321.571°
True anomaly54.49182°
Mean anomaly31.1251°
Eccentric anomaly42.04366°
Mean motion1.94517 °/min
BSTARUnknown
Orbital period185.07 mins
Loading maneuver chart data...
Loading historical data...
Loading historical data...
Loading historical data...
Loading historical data...
Loading historical data...
Loading historical data...
Loading historical data...
Other satellites on launch #68 in the year 1962 (1962-12-13 UTC)

RELAY 1 (A-15) Visibility forecast

Observer location: undefined°, undefined

Span
Click to sort rows by Start time (UTC) header in descending order
Start Az.
Max El. time (UTC)
Max El. Az.
Max El.
End time (UTC)
End Az.
44 mins2025-01-25 00:19:56.153Z214.033° SW2025-01-25 00:32:56.153Z125.879° SE42.965°2025-01-25 01:03:56.153Z58.882° ENE
69 mins2025-01-25 03:35:56.153Z271.578° WNW2025-01-25 03:55:56.153Z355.811° N43.833°2025-01-25 04:44:56.153Z88.579° E
82 mins2025-01-25 06:55:56.153Z298.076° NW2025-01-25 07:29:56.153Z220.763° SW44.872°2025-01-25 08:17:56.153Z137.177° SSE
70 mins2025-01-25 10:19:56.153Z299.987° NW2025-01-25 10:54:56.153Z249.279° W30.638°2025-01-25 11:29:56.153Z194.278° SSW
20 mins2025-01-25 21:55:56.153Z141.114° SSE2025-01-25 22:02:56.153Z104.091° ESE19.633°2025-01-25 22:15:56.153Z65.513° ENE
|